Regional Weather Roundup
Issued by NWS

Home | Current Version | Previous Version | Text Only | Print | Product List | Glossary Off
Versions: 1 2 3 4 5 6 7 8 9 10 11 12 13 14 15 16 17 18 19 20 21 22 23 24 25 26 27 28 29 30 31 32 33 34 35 36 37 38 39 40 41 42 43 44 45 46 47 48 49 50

000
ASUS43 KMPX 262210
RWRMN
WEATHER ROUNDUP FOR MINNESOTA
NATIONAL WEATHER SERVICE TWIN CITIES/CHANHASSEN MN
500 PM CDT FRI AUG 26 2016


NOTE: "FAIR" INDICATES FEW OR NO CLOUDS BELOW 12,000 FEET WITH NO
SIGNIFICANT WEATHER AND/OR OBSTRUCTIONS TO VISIBILITY. N/A MEANS
CURRENT SKY AND/OR WEATHER CONDITIONS ARE NOT AVAILABLE.

MNZ060>063-068>070-262300-
   Twin Cities Metro

CITY           SKY/WX    TMP DP  RH WIND       PRES   REMARKS
TWIN CITIES    CLOUDY    71  52  50 S5        30.15S
ST PAUL        PTSUNNY   70  57  63 SE8       30.15S
CRYSTAL        CLOUDY    71  51  49 W3        30.14R
BLAINE         CLOUDY    73  55  53 CALM      30.15S
LAKEVILLE      CLOUDY    70  55  60 CALM      30.16S
EDEN PRAIRIE   CLOUDY    72  54  53 VRB5      30.14S
LAKEVILLE      CLOUDY    70  55  60 CALM      30.16S
SOUTH ST PAUL  CLOUDY    71  53  51 S5        30.15S
LAKE ELMO      FAIR      70  54  56 S5        30.17S
$$
MNZ001>005-007-008-013>017-022>024-027-028-262300-
   Northwest Minnesota

CITY           SKY/WX    TMP DP  RH WIND       PRES   REMARKS
BEMIDJI        MOSUNNY   71  47  42 SW6       30.07F
HALLOCK        CLOUDY    75  48  38 SW13      29.99S
ROSEAU         MOSUNNY   75  48  38 S12       30.02F
WARROAD        MOSUNNY   73  54  49 S8        30.02F
THIEF RVR FALL PTSUNNY   74  47  38 SW10      30.04F
CROOKSTON      MOSUNNY   75  48  38 SW14      30.04S
FOSSTON        CLOUDY    75  52  43 S12       30.07F
DETROIT LAKES  CLOUDY    72  46  40 SW8       30.11S
MOORHEAD       MOSUNNY   72  52  49 SW7       30.08S
PARK RAPIDS    MOSUNNY   75  48  38 SW9       30.10S
MAHNOMEN       FAIR      73  50  44 SW10      30.07F
$$
MNZ006-009>011-018-025>026-262300-
   North Central Minnesota

CITY           SKY/WX    TMP DP  RH WIND       PRES   REMARKS
BAUDETTE       MOSUNNY   72  49  44 W5        30.04S
FLAG ISLAND    MOSUNNY   72  55  56 S3        30.00F
INTL FALLS     PTSUNNY   71  53  52 W3        30.05F
WASKISH        SUNNY     73  52  46 SW7       30.06F
BIG FORK       PTSUNNY   75  52  43 S7        30.09S
LONGVILLE      CLOUDY    73  50  43 SW5       30.10S
GRAND RAPIDS   MOSUNNY   73  47  39 SW5       30.13R
CRANE LAKE     MOSUNNY   70  48  46 SW1       30.09F
ORR            MOSUNNY   72  43  35 CALM      30.07R
COOK           MOSUNNY   72  48  43 SW3       30.10S
WALKER         FAIR      71  49  46 SW6       30.09S
$$
MNZ012-019>021-037-262300-
   Northeast Minnesota

CITY           SKY/WX    TMP DP  RH WIND       PRES   REMARKS
DULUTH         CLOUDY    72  52  49 S8        30.12S
ELY            MOSUNNY   68  46  45 SW3       30.11R
HIBBING        CLOUDY    70  47  43 CALM      30.11R
EVELETH        CLOUDY    73  46  37 SW7       30.12S
DULUTH HARBOR  CLOUDY    73  54  49 SW6       30.11S
TWO HARBORS    MOSUNNY   72  55  56 S5        30.11S
SILVER BAY     CLOUDY    70  50  49 S8        30.12S
GRAND MARAIS     N/A     63  53  70 SW7       30.14R
G MARAIS ARPRT SUNNY     63  48  59 S6        30.15S
$$
MNZ029>031-032-039>041-046>048-054>057-064-262300-
   West Central Minnesota

CITY           SKY/WX    TMP DP  RH WIND       PRES   REMARKS
FERGUS FALLS   CLOUDY    72  52  49 S12       30.11S
WHEATON        CLOUDY    72  55  56 S6        30.13S
MORRIS         CLOUDY    72  54  53 S5        30.12S
ALEXANDRIA     CLOUDY    71  52  50 S12       30.15S
ELBOW LAKE     FAIR      70  54  56 S9        30.12S
WADENA         MOSUNNY   72  50  46 SW6       30.11S
GLENWOOD       CLOUDY    70  52  52 S6        30.14F
APPLETON       MOSUNNY   72  54  53 S7        30.12S
BENSON         CLOUDY    72  50  46 S7        30.13S
ORTONVILLE     CLOUDY    72  54  53 CALM      30.12S
MADISON        CLOUDY    72  55  56 SE7       30.12F
WILLMAR        FAIR      72  55  56 S5        30.15S
$$
MNZ033>034-036-042>043-049>051-058-059-262300-
   Central Minnesota

CITY           SKY/WX    TMP DP  RH WIND       PRES   REMARKS
ST CLOUD       CLOUDY    72  53  51 SW8       30.14S
SAUK CENTRE    FAIR      71  52  51 SW7       30.13F
PAYNESVILLE    CLOUDY    71  53  52 S6        30.14F
AITKIN         MOSUNNY   73  45  35 S8        30.11S
PINE RIVER     CLOUDY    73  52  46 SW7       30.13F
BRAINERD       CLOUDY    71  49  45 S6        30.12S
STAPLES        MOSUNNY   70  46  43 SW5       30.12S
LONG PRAIRIE   FAIR      70  54  56 SE7       30.14S
LITTLE FALLS   CLOUDY    70  48  46 SW6       30.13F
LITCHFIELD     PTSUNNY   72  55  56 S3        30.15F
BUFFALO        CLOUDY    70  51  51 S5        30.16S
MAPLE LAKE     CLOUDY    71  58  63 S3        30.16S
HUTCHINSON     CLOUDY    70  58  66 S5        30.16S
$$
MNZ037-044-045-052-053-262300-
   East Central Minnesota

CITY           SKY/WX    TMP DP  RH WIND       PRES   REMARKS
PRINCETON      CLOUDY    73  54  49 S3        30.14S
MORA           CLOUDY    70  52  52 S7        30.15F
CAMBRIDGE      CLOUDY    73  55  53 S6        30.13S
RUSH CITY      CLOUDY    70  52  52 S5        30.14S
MOOSE LAKE     CLOUDY    72  52  49 SE5       30.11S
HINCKLEY       FAIR      72  54  53 SW6       30.14S
CLOQUET        CLOUDY    70  52  52 S3        30.13S
MCGREGOR       CLOUDY    72  52  49 SW7       30.13R
$$
MNZ071>073-080-081-089-090-097-098-262300-
   Southwest Minnesota

CITY           SKY/WX    TMP DP  RH WIND       PRES   REMARKS
MONTEVIDEO     CLOUDY    73  57  56 SW5       30.15S
GRANITE FALLS  MOSUNNY   72  55  55 SE5       30.15S
CANBY          CLOUDY    72  57  60 SE5       30.14S
MARSHALL       CLOUDY    71  55  56 SE5       30.13F
REDWOOD FALLS  MOSUNNY   71  54  54 SE7       30.14F
OLIVIA         MOSUNNY   70  52  52 CALM      30.14S
PIPESTONE      CLOUDY    70  55  60 S7        30.14S
WINDOM         CLOUDY    70  55  60 E7        30.15S
WORTHINGTON    PTSUNNY   68  56  65 SE7       30.15F
JACKSON          N/A     68  54  60 SE6       30.16S
TRACY          CLOUDY    72  57  59 SE6       30.14F
SLAYTON        CLOUDY    68  57  68 SE6       30.15F
$$
MNZ065>067-074>077-082>085-091>093-262300-
   South Central Minnesota

CITY           SKY/WX    TMP DP  RH WIND       PRES   REMARKS
MANKATO        CLOUDY    70  54  56 SE5       30.15F
NEW ULM        CLOUDY    70  55  60 S5        30.15S
ST JAMES       MOSUNNY   64  52  63 SE3       30.16F
FAIRMONT       CLOUDY    69  58  67 SE5       30.16S
GLENCOE        CLOUDY    71  59  64 SE5       30.15S
FARIBAULT      CLOUDY    72  55  56 CALM      30.16F
OWATONNA       CLOUDY    70  54  56 S3        30.16S
WASECA         CLOUDY    70  57  64 CALM      30.17S
ALBERT LEA     CLOUDY    70  55  60 CALM      30.16S
$$
MNZ078>079-086>088-094>096-262300-
   Southeast Minnesota

CITY           SKY/WX    TMP DP  RH WIND       PRES   REMARKS
ROCHESTER      CLOUDY    70  56  61 E3        30.16F
RED WING       CLOUDY    72  50  46 CALM      30.15S
STANTON        CLOUDY    70  55  60 CALM      30.15S
DODGE CENTER   CLOUDY    72  55  56 SE3       30.16F
WINONA         CLOUDY    72  54  53 CALM      30.15S
AUSTIN         CLOUDY    68  55  64 CALM      30.16S
PRESTON        CLOUDY    68  55  64 CALM      30.16F
$$
ABBREVIATIONS USED IN REMARKS
   TC - TEMPERATURES IN CELSIUS
  WCI - WIND CHILL INDEX
   HX - HEAT INDEX
  VSB - VISIBILITY
$$




USA.gov is the U.S. government's official web portal to all federal, state and local government web resources and services.